Location: Arnac
(46.2660°N, 1.3737°E)
Time: 11:49:58
(UTC+00:00)

Daily predictions for brighter satellites

Satellite Brightness Start Highest point End
(mag) Time Altitude Azimuth Time Altitude Azimuth Time Altitude Azimuth
BREEZE-M DEB (TANK) 3.6 19:50:30 10° SSW 19:53:31 35° SE 20:01:31 10° ENE
BREEZE-M DEB (TANK) 3.2 19:56:24 10° WNW 19:59:13 76° NNE 20:06:41 10° ESE
MOS 1 4.3 19:54:42 10° SSE 20:00:22 81° ENE 20:06:02 10° NNW
Resurs 01 Rocket 2.0 19:59:45 10° SE 20:04:02 50° ENE 20:08:22 10° N
Cosmos 2151 4.0 20:02:09 10° SSE 20:05:43 27° E 20:09:18 10° NNE
ERS-2 2.3 20:02:31 10° NNE 20:06:05 49° ESE 20:09:36 10° S
Cosmos 44 Rocket 3.8 20:01:21 10° SW 20:06:32 73° NW 20:11:48 10° NNE
Cosmos 2098 Rocket 3.0 20:04:06 10° SSE 20:06:58 37° E 20:10:18 10° NNE
Gbstr 26 Del rocket 3.5 20:04:33 10° WNW 20:08:10 46° NNE 20:11:57 10° E
USA 186 4.2 20:10:36 10° SSW 20:12:56 20° W 20:15:12 10° NW
Ariane Rocket 3.2 20:13:20 10° S 20:18:25 79° WSW 20:23:32 10° NNW
SL-16 R/B 3.1 20:17:54 10° NNW 20:23:07 36° NE 20:28:03 11° ESE
Cosmos 1782 4.2 20:24:06 10° NNE 20:27:23 23° ENE 20:30:03 13° ESE
Cosmos 371 Rocket 3.3 20:23:14 10° NNW 20:28:04 82° ENE 20:32:51 10° SSE
ARIANE 5 R/B 3.8 20:26:51 12° ESE 20:30:19 28° ENE 20:34:08 10° N
Cosmos 1271 Rocket 3.6 20:30:19 10° N 20:34:02 36° ENE 20:36:55 15° SE
USA 276 2.5 20:32:42 10° WNW 20:35:51 61° NNE 20:38:32 13° E
SPOT 1/Viking Rocket 3.7 20:31:18 10° SSE 20:36:22 64° ENE 20:41:33 10° N
BREEZE-M DEB (TANK) 2.3 20:34:10 10° WNW 20:37:00 83° SSW 20:43:14 12° ESE
Cosmos 1076 Rocket 3.6 20:33:42 10° S 20:38:03 81° W 20:42:26 10° N
Cosmos 1697 Rocket 4.3 20:34:23 10° NW 20:39:17 31° WSW 20:44:10 10° SSW
OBJECT-B 3.8 20:39:31 10° WSW 20:41:00 13° W 20:42:28 10° WNW
Cosmos 1151 Rocket 4.2 20:37:15 10° NNE 20:41:02 28° ENE 20:43:40 16° ESE
ATLAS 5 CENTAUR R/B 4.5 20:38:13 10° NNW 20:41:03 15° NNE 20:44:08 10° NE
ATLAS 2AS CENTAUR R/B 3.7 20:36:23 10° WSW 20:44:10 59° NW 20:51:46 10° NE
Cosmos 923 Rocket 4.4 20:42:17 10° S 20:47:18 43° ESE 20:52:20 10° NE
ATLAS 3B R/B 3.0 20:43:13 10° NW 20:50:17 69° WSW 20:56:42 14° SSE
Terra 3.0 20:47:56 15° ESE 20:50:55 28° ENE 20:54:58 10° N
SPOT 5 3.4 20:50:48 18° SE 20:53:30 37° ENE 20:57:33 10° N
USA 267 4.3 20:50:34 10° ENE 20:55:20 21° ESE 20:59:02 13° SSE
Cosmos 2082 Rocket 3.2 20:50:10 10° SW 20:55:37 51° WNW 21:01:10 10° NNE
Cosmos 1092 Rocket 4.0 20:49:45 10° S 20:55:58 72° E 21:02:16 10° NNE
Meteor 2-19 Rocket 4.4 20:50:03 10° S 20:56:05 82° E 21:02:10 10° N
Cosmos 1633 4.0 20:54:05 10° SSW 20:57:28 38° WNW 21:00:53 10° N
Cosmos 2278 4.4 20:53:55 10° NW 20:59:22 50° WSW 21:04:37 11° S
BREEZE-M DEB (TANK) 2.5 20:59:05 10° W 21:01:42 50° NNW 21:03:12 13° ENE
ERS-1 Rocket 3.3 21:00:35 20° SE 21:03:53 51° ENE 21:08:45 10° N
Cosmos 332 Rocket 3.9 21:00:30 10° NNW 21:05:24 76° WSW 21:08:59 18° SSE
SL-27 R/B 4.3 21:06:23 16° E 21:06:23 16° E 21:08:21 10° ENE
Cosmos 2360 Rocket 3.1 21:01:18 10° NNW 21:06:30 36° NE 21:10:08 18° ESE
Cosmos 158 Rocket 4.1 21:02:00 10° SSW 21:07:09 81° WNW 21:12:29 10° NNE
Cosmos 2026 Rocket 4.0 21:02:38 10° S 21:08:56 73° E 21:15:12 10° NNE
GP-B 3.0 21:08:41 10° N 21:13:09 78° E 21:16:14 20° S
ISS -3.0 21:11:41 10° WNW 21:14:53 40° SW 21:15:56 30° S
Cosmos 2333 Rocket 3.8 21:12:15 10° N 21:16:50 24° NE 21:20:38 13° E
Spot 2 Rocket 3.5 21:14:48 20° SSE 21:18:27 85° WSW 21:23:36 10° NNW
Meteor 1-26 Rocket 4.4 21:13:33 10° NNW 21:19:32 81° W 21:23:54 18° S
Cosmos 1371 Rocket 4.4 21:15:12 10° NNW 21:20:28 53° ENE 21:23:22 26° SE
Cosmos 1812 3.2 21:18:05 10° N 21:21:48 44° ENE 21:23:04 32° SE
Cosmos 2112 Rocket 4.1 21:17:49 16° S 21:21:53 55° ESE 21:27:02 10° NNE
Cosmos 1680 Rocket 3.5 21:17:27 12° S 21:22:21 65° ESE 21:27:35 10° NNE
Cosmos 220 Rocket 4.2 21:19:38 10° NNW 21:23:56 58° ENE 21:25:50 31° SE
CZ-2C R/B 4.1 21:20:34 10° N 21:25:04 62° WNW 21:29:27 10° SSW
Cosmos 1980 Rocket 4.0 21:23:05 10° NW 21:27:30 24° WSW 21:31:56 10° SSW
Okean 3 Rocket 3.6 21:24:58 25° S 21:27:31 68° E 21:32:01 10° NNE
USA 245 4.4 21:25:06 15° S 21:29:08 51° WSW 21:33:18 10° NNW
USA 234 4.3 21:24:26 10° E 21:30:30 42° NNE 21:36:34 10° NW
Cosmos 2322 Rocket 2.1 21:33:15 10° NNW 21:38:55 86° WSW 21:41:46 30° SSE
Resurs 01 Rocket 4.0 21:37:45 10° SW 21:40:49 18° W 21:43:54 10° NW
Cosmos 1408 Rocket 3.8 21:40:12 38° SE 21:41:24 49° E 21:45:36 10° NNE
Meteor 2-14 Rocket 4.4 21:44:00 23° S 21:48:00 80° E 21:54:10 10° NNE
Cosmos 2084 3.2 21:48:52 27° SSW 21:50:59 71° SE 21:55:09 10° NE
Cosmos 1553 Rocket 3.9 21:46:09 10° N 21:52:15 85° W 21:55:36 29° S
CZ-4B DEB 4.0 21:53:29 77° ESE 21:53:35 79° ENE 21:56:46 10° N
Gbstr 26 Del rocket 3.1 21:51:18 10° WNW 21:54:57 47° SW 21:55:26 44° S
Cosmos 2266 Rocket 4.2 21:53:29 33° SSE 21:55:59 52° E 22:02:01 10° NNE
Cosmos 1862 3.2 21:57:03 46° S 21:58:11 90° W 22:02:11 10° N
Cosmos 2219 Rocket 3.1 21:55:14 10° NNW 22:00:27 38° NE 22:02:58 25° ESE
Cosmos 1624 Rocket 4.0 21:55:46 10° NNW 22:01:00 81° WSW 22:02:57 39° S
Cosmos 1782 4.4 22:00:11 10° NNW 22:03:41 29° W 22:05:39 19° SW
NOSS 2-1 (E) 2.7 22:05:22 76° ENE 22:05:22 76° ENE 22:08:35 10° NE
Cosmos 2228 Rocket 3.9 22:01:18 10° N 22:05:23 36° ENE 22:06:05 34° E
Cosmos 1515 Rocket 3.5 22:01:09 10° N 22:05:37 88° ENE 22:06:43 51° SSE
H-2A R/B 3.4 22:02:12 10° NNE 22:06:24 73° ESE 22:07:15 54° SSE
ARIANE 5 R/B 4.0 22:04:24 21° SW 22:06:40 33° W 22:10:43 10° NNW
SL-16 R/B 3.1 22:01:59 10° NW 22:07:16 41° WSW 22:09:55 25° SSW
NOSS 3-1 (C) 4.2 22:02:07 10° NW 22:09:29 69° NE 22:14:30 27° SE
Cosmos 2333 4.4 22:04:36 10° NNW 22:10:10 61° ENE 22:12:13 37° ESE
COSMOS 2455 3.3 22:09:10 38° SE 22:10:11 41° ESE 22:15:46 10° NE
Cosmos 2237 4.4 22:05:56 10° NNW 22:11:35 64° WSW 22:13:45 37° S
USA 276 3.9 22:09:05 10° W 22:10:46 23° WSW 22:10:46 23° WSW
Cosmos 1420 Rocket 4.0 22:06:40 10° NNW 22:12:02 85° ENE 22:13:43 45° SSE
COSMOS 2428 3.6 22:09:49 10° NNW 22:15:12 41° NE 22:17:35 28° ESE
Cosmos 1655 Rocket 4.0 22:12:44 33° S 22:15:48 82° E 22:22:15 10° N
Meteor 2-6 Rocket 4.5 22:11:18 10° NNW 22:16:37 59° W 22:18:53 33° SSW
S3M 4.1 22:16:10 10° NNW 22:22:34 75° W 22:25:25 35° S
Spot 4 4.5 22:21:45 38° ESE 22:22:49 44° ENE 22:27:23 10° N
USA 229 DEB 4.3 22:16:30 10° NW 22:23:38 56° NE 22:28:16 24° ESE
USA 229 4.4 22:16:35 10° NW 22:23:43 55° NE 22:28:23 24° ESE
ATLAS 5 CENTAUR R/B 3.3 22:21:59 10° NNW 22:27:03 40° NE 22:30:39 21° E
Cosmos 1174 4.0 22:24:13 10° NW 22:26:29 48° NNW 22:26:29 48° NNW
Terra 2.9 22:26:49 28° SW 22:28:32 37° W 22:32:58 10° NNW
COSMOS 2487 3.9 22:31:49 28° NE 22:31:49 28° NE 22:33:44 10° NNE
Cosmos 1452 Rocket 3.6 22:26:18 10° NNW 22:31:33 66° ENE 22:32:49 49° SE
SPOT 5 4.4 22:30:02 18° SW 22:31:44 22° W 22:35:12 10° NW
ALOS 2 3.7 22:33:57 30° E 22:34:32 31° ENE 22:38:26 10° N
USA 267 3.1 22:32:30 10° NE 22:39:04 73° SE 22:45:36 10° SW
SL-27 R/B 3.9 22:39:50 30° W 22:40:45 35° WNW 22:44:07 10° N
Cosmos 2056 Rocket 4.5 22:36:04 10° NW 22:40:59 38° WSW 22:42:28 31° SW
Meteor 1-27 Rocket 3.7 22:36:58 10° NNW 22:42:37 77° W 22:44:14 49° S
NOSS 3-1 (A) 4.2 22:36:48 10° NW 22:44:11 70° NE 22:48:48 30° SE
Cosmos 1805 Rocket 3.4 22:49:13 78° SE 22:49:23 80° E 22:53:51 10° N
Cosmos 2360 Rocket 2.9 22:45:19 10° NW 22:50:32 40° WSW 22:51:53 35° SW
IRIDIUM 104 4.3 22:45:58 10° N 22:51:12 77° W 22:52:18 55° SSW
Meteor 1-20 Rocket 4.2 22:54:51 57° SSE 22:55:52 70° E 23:01:32 10° NNE
Cosmos 1110 Rocket 4.3 22:52:18 10° NNW 22:57:35 58° ENE 22:58:40 48° ESE
Cosmos 1500 Rocket 4.4 22:59:40 38° WSW 23:00:35 44° WNW 23:04:52 10° N
Cosmos 2333 Rocket 2.2 22:55:59 10° NNW 23:01:36 67° WSW 23:02:38 56° SSW
Cosmos 1331 Rocket 4.2 22:57:50 10° NNW 23:03:01 58° ENE 23:03:58 50° ESE
Cosmos 1244 Rocket 4.5 23:03:47 52° SSE 23:05:10 67° E 23:11:18 10° NNE
Cosmos 972 Rocket 4.2 23:07:27 45° SW 23:08:57 67° WNW 23:13:58 10° NNE
COBE Rocket 4.0 23:09:07 54° WSW 23:09:28 56° W 23:14:05 10° NNW
Cosmos 2322 3.9 23:06:11 10° NNW 23:11:49 59° WSW 23:12:44 53° SSW
USA 234 3.2 23:10:02 35° ESE 23:13:06 84° NE 23:19:41 10° NW
NOSS 0 Rocket 4.1 23:07:54 10° NNW 23:14:08 66° ENE 23:16:01 44° ESE
Cosmos 2297 Rocket 3.3 23:17:11 29° E 23:17:11 29° E 23:21:47 10° NE
Cosmos 468 4.4 23:16:08 62° SW 23:17:00 82° WNW 23:22:16 10° NNE
Lacrosse 5 3.5 23:21:59 22° E 23:21:59 22° E 23:24:18 10° ENE
Cosmos 2322 Rocket 4.3 23:19:32 10° WNW 23:22:03 13° W 23:23:35 12° WSW
Cosmos 2237 Rocket 2.8 23:16:46 10° NNW 23:22:17 49° ENE 23:24:02 37° ESE
Cosmos 2084 Rocket 4.3 23:19:30 10° NNW 23:23:31 42° NE 23:24:07 40° ENE
Meteor 1-18 Rocket 4.2 23:20:01 10° N 23:25:54 79° ENE 23:26:57 61° SSE
Cosmos 1500 3.9 23:26:57 49° NE 23:26:57 49° NE 23:29:56 10° NNE
Cosmos 1470 Rocket 4.3 23:29:03 41° ENE 23:29:03 41° ENE 23:32:37 10° NNE
Cosmos 2227 Rocket 3.4 23:28:53 27° E 23:28:53 27° E 23:33:22 10° NE
Sich 1 3.5 23:28:46 50° W 23:28:56 51° WNW 23:33:11 10° N
Cosmos 2285 Rocket 4.3 23:25:15 10° NNW 23:31:20 52° WSW 23:32:33 45° SW
Meteor 1-25 Rocket 4.4 23:30:16 51° SW 23:31:30 66° WNW 23:37:04 10° N
Okean 1 3.7 23:28:21 10° NNW 23:31:46 59° NW 23:31:46 59° NW
Cosmos 1633 Rocket 3.1 23:33:06 76° NNE 23:33:06 76° NNE 23:37:10 10° N
Cosmos 494 Rocket 4.0 23:33:17 62° WSW 23:33:59 73° WNW 23:39:08 10° NNE
Cosmos 1666 Rocket 3.6 23:37:07 72° WNW 23:37:07 72° WNW 23:41:26 10° N
Cosmos 2219 Rocket 2.9 23:39:15 10° NW 23:44:23 37° WSW 23:44:40 37° WSW
SL-08 R/B 4.4 23:45:17 57° SSW 23:46:39 83° W 23:52:52 10° N
Meteor 1-19 Rocket 4.3 23:43:22 10° NNW 23:48:53 57° W 23:49:32 54° SW
SL-16 R/B 3.7 23:44:24 10° N 23:49:27 31° NE 23:52:42 18° ESE
Cosmos 1269 Rocket 4.1 23:50:05 59° ESE 23:50:11 59° ESE 23:55:22 10° NNE
PSLV R/B 4.3 23:47:44 10° NNE 23:52:12 49° E 23:52:12 49° E
Resurs 1-4 Rocket 4.5 23:53:17 10° ENE 23:53:57 10° E 23:54:37 10° E
